Location: Prague
(50.0830°N, 14.4670°E)
Time: 02:30:26
(UTC+02:00)

X-37B - Pass Details

Date: 27 September 2021
Orbit: 385 x 389 km, 45.0° (Epoch: 13 October)

Event Time Altitude Azimuth Distance (km) Brightness Sun altitude
Exits shadow 05:21:50 27° 200° (SSW) 781 1.8 -15.8°
Maximum altitude 05:22:34 30° 173° (S) 716 1.8 -15.6°
Drops below altitude 10° 05:25:25 10° 109° (ESE) 1,414 4.2 -15.2°
Sets 05:27:37 0° 99° (E) 2,270 5.7 -14.9°
